Location: Unspecified
(50.1700°N, 6.8600°E)
Time: 01:29:36
(UTC+00:00)

Envisat - Visible Passes

Search period start: 19 March 2019 00:00
Search period end: 29 March 2019 00:00
Orbit: 764 x 766 km, 98.2° (Epoch: 18 March)

Date Brightness Start Highest point End Pass type
(mag) Time Alt. Az. Time Alt. Az. Time Alt. Az.
19 Mar 4.9 18:52:30 10° SSW 18:57:04 33° W 19:01:39 10° NNW visible
20 Mar 3.5 18:15:04 10° S 18:20:07 66° WSW 18:25:12 10° NNW visible
21 Mar 5.7 19:19:06 10° SW 19:22:51 21° W 19:26:38 10° NW visible
22 Mar 4.5 18:41:01 10° SSW 18:45:46 40° W 18:50:34 10° NNW visible
23 Mar 6.1 19:46:39 10° WSW 19:48:45 12° W 19:50:52 10° WNW visible
24 Mar 5.4 19:07:22 10° SSW 19:11:31 25° W 19:15:42 10° NW visible
25 Mar 4.1 18:29:35 10° S 18:34:30 49° W 18:39:27 10° NNW visible
26 Mar 5.9 19:34:24 10° WSW 19:37:22 15° W 19:40:21 10° NW visible
27 Mar 5.1 18:55:45 10° SSW 19:00:12 30° W 19:04:41 10° NNW visible
